www.pogodaiklimat.ru

Погода и климат >> Архив погоды >> Россия >> Вологодская область >> Вытегра


АРХИВ ПОГОДЫ в Вытегре

Время (UTC), дата Ветер
(напр.,м/с)
 
Видим.   Явления Облачность Т
(С)
Тd
(С)
f
(%)
Тe
(С)
Тes
(С)
Комфортность P
(гПа)
Po
(гПа)
Тmin
(С)
Tmax
(С)
R
(мм)
R24
(мм)
S
(см)
12 13.09 ЮЗ 3 50 км в посл. час ливневой дождь 10/4 300 м
[Cb cap Ac und]
+15.2 +10.2 72 +15 +15 1009.4 1002.7
15 13.09 Ю 3 4000 м слаб. ливневой дождь 9/8 540 м
[Cb cap Ac As]
+14.2 +10.7 79 +13 +13 1007.1 1000.4 +15.6 0.0
18 13.09 ЮЗ 2 4000 м слаб. ливневой дождь 9/9 300 м
[Cb cap]
+12.7 +12.1 96 +12 +12 1005.6 998.9
03 14.09 СЗ 2 2000 м ливневой дождь 10/10 300 м
[Cb cap]
+10.1 +10.1 100 +8 +8 1000.3 993.5 +10.1 19
12 14.09 З 6-11
{12}
50 км 8/8 800 м
[Cb cap]
+11.3 +7.1 75 +8 +9 1005.1 998.3
15 14.09 З 3 50 км в посл. час ливневой дождь 8/8 450 м
[Cb cap]
+10.6 +7.3 80 +9 +9 1005.5 998.7 +12.2 4
18 14.09 З 4
{10}
10 км {ливн. осадки} 8/8 720 м
[Cb cap]
+9.3 +6.5 83 +6 +6 1006.3 999.5
03 15.09 З 4 10 км 10/10 870 м
[Cb cap]
+7.4 +4.6 82 +4 +4 1007.4 1000.5 +7.2
12 15.09 ЮЗ 4 50 км 8/6 600 м
[Cb cap Ci fib]
+13.0 +3.4 52 +12 +12 1002.8 996.1
15 15.09 Ю 5 50 км слаб. ливневой дождь 9/9 480 м
[Cb cap]
+9.6 +5.0 73 +7 +7 999.1 992.3 +14.1 0.0
18 15.09 ЮВ 4 4000 м слаб. ливневой дождь 10/10 500 м
[Cb cap]
+7.4 +5.6 88 +4 +4 993.8 987.0
03 16.09 Ю 3 10 км 9/9 800 м
[Cb cap]
+8.8 +8.6 99 +6 +6 984.8 978.1 +7.0 7
12 16.09 ЮЗ 3 50 км {ливн. осадки} 9/9 570 м
[Cb cap]
+11.1 +6.7 74 +9 +10 984.9 978.2
15 16.09 ЮЗ 3 50 км в посл. час ливневой дождь 9/9 540 м
[Cb cap]
+10.0 +7.0 82 +8 +8 985.2 978.5 +12.4 2
18 16.09 ЮВ 1 10 км {ливн. осадки} 9/9 700 м
[Cb cap]
+8.0 +6.7 91 +7 +7 985.3 978.6
03 17.09 СЗ 1 10 км {ливн. осадки} 6/4 300 м
[Cb cap Ac trans]
+6.1 +6.1 100 +5 +5 987.9 981.1 +6.0 2
12 17.09 З 4 50 км {ливн. осадки} 9/9 540 м
[Cb cap]
+11.4 +7.0 74 +9 +9 990.8 984.1
15 17.09 С 1 4000 м слаб. ливневой дождь 9/9 570 м
[Cb cap]
+8.5 +7.8 95 +8 +8 991.8 985.0 +11.8 2
18 17.09 С 1 10 км {ливн. осадки} 4/4 300 м
[Cb cap]
+7.2 +7.2 100 +6 +6 992.5 985.7
03 18.09 С 1 4000 м слаб. морось 10/10 360 м
[St]
+7.3 +7.3 100 +6 +6 995.4 988.5 +5.5 1
12 18.09 СЗ 4 50 км 9/9 540 м
[Cb cap]
+9.4 +5.6 77 +7 +7 999.7 992.9
15 18.09 С 3 50 км в посл. час ливневой дождь 8/8 600 м
[Cb cap]
+7.1 +5.1 87 +4 +4 1001.6 994.7 +10.1 2
18 18.09 С 1 10 км {ливн. осадки} 9/9 720 м
[Cb cap]
+5.6 +3.7 88 +4 +4 1003.4 996.5
03 19.09 СЗ 1 10 км 3/3 600 м
[Sc]
+0.3 +0.3 100 -2 -2 1007.2 1000.1 +0.1
12 19.09 СЗ 4 50 км 6/6 600 м
[Cb cap]
+8.5 +0.2 56 +6 +7 1010.5 1003.6
15 19.09 СВ 1 50 км 8/8 540 м
[Cb cap]
+5.9 +2.5 79 +5 +5 1011.2 1004.2 +8.9
18 19.09 В 2 10 км {ливн. осадки} 4/4 300 м
[Cb cap]
+2.4 +2.4 100 -1 -1 1011.8 1004.7
03 20.09 Ю 1 10 км 4/4 600 м
[Cb cap]
-0.8 -0.8 100 -3 -3 1010.7 1003.6 -1.0 2

 

Местоположение метеостанции Вытегра (Вологодская область, Россия): широта 61.02 долгота 36.45 высота над уровнем моря 56 м.

В архиве по умолчанию представлена погода в Вытегре за последнюю неделю. Архивные данные за месяц целиком и за предыдущие месяцы, начиная с января 2011 года, Вы можете получить, выбрав интересующий диапазон дат из раскрывающегося списка и нажав кнопку "Ввод!".


*Определитесь, кто Вы:
робот инопланетянин человек

Внимание! Время в таблицах - всемирное. Для получения местного времени необходимо прибавить поправку, которая равна 3 ч.

Смотрите также архив погоды в соседних городах и на ближайших метеорологических станциях:

Погода в Вознесенье (Ленинградская область, Россия) (52 км)
Погода в Пудоже (Карелия, Россия) (87 км)
Погода в Винницах (Ленинградская область, Россия) (100 км)
Погода в Маячном (Карелия, Россия) (110 км)
Погода в Белозерске (Вологодская область, Россия) (132 км)
Погода в Каргополе (Архангельская область, Россия) (143 км)
Погода в Петрозаводске (Карелия, Россия) (146 км)
Погода в Лодейном Поле (Ленинградская область, Россия) (161 км)
Погода в Яршево (Вологодская область, Россия) (167 км)
Погода в Пряже (Ленинградская область, Россия) (168 км)

Пояснения к столбцам:

Ветер - указаны скорость ветра в м/с - средняя за 10 мин, порывы в срок и между сроками (в фигурных скобках) и направление, откуда дует ветер: С - северный, СВ - северо-восточный, В - восточный, ЮВ - юго-восточный, Ю - южный, ЮЗ - юго-западный, З - западный, СЗ - северо-западный.
Видимость - горизонтальная дальность видимости в метрах или километрах. При видимости от 1 до 10 км при отсутствии осадков обычно наблюдается дымка, при ухудшении видимости до 1 км и менее - туман. В сухую погоду видимость может ухудшаться дымом, пылью или мглою.
Явления - указаны атмосферные явления, наблюдавшиеся в срок или в последний час перед сроком; фигурными скобками обозначены явления, наблюдавшиеся между сроками (за 1-3 часа до срока); квадратными скобками обозначены град или гололедные отложения с указанием их диаметра в мм.
Облачность - указаны через наклонную черту общая и нижняя облачность в баллах и высота нижней границы облаков в метрах; квадратными скобками обозначены формы облаков: Ci - перистые, Cs - перисто-слоистые, Cc - перисто-кучевые, Ac - высококучевые, As - высокослоистые, Sc - слоисто-кучевые, Ns - слоисто-дождевые, Cu - кучевые, Cb - кучево-дождевые. Подробнее классификацию облаков см. в Атласе облаков (PDF).
T - Температура воздуха - температура, измеренная на высоте 2 м над землей.
Td - Температура точки росы - температура, при понижении до которой содержащийся в воздухе водяной пар достигнет насыщения.
f - Относительная влажность воздуха - влажноcть воздуха, измеренная на высоте 2 м над землей.
Te - Эффективная температура - температура, которую ощущает одетый по сезону человек в тени. Характеристика душности погоды. При расчете учитывается влияние влажности воздуха и скорости ветра на теплоощущения человека.
Tes - Эффективная температура на солнце - температура, которую ощущает человек, с поправкой на солнечный нагрев. Характеристика знойности погоды. Зависит от высоты солнца над горизонтом, облачности и скорости ветра. Ночью, в пасмурную погоду, а также при ветре 12 м/с и более поправка равна нулю.
P - Атмосферное давление - приведенное к уровню моря атмосферное давление.
Po - Атмосферное давление - измеренное на уровне метеостанции атмосферное давление.
Tmin - Минимальная температура - минимум температуры воздуха на высоте 2 м над землей.
Tmax - Максимальная температура - максимум температуры воздуха на высоте 2 м над землей.
R - Количество осадков - Количество выпавших осадков за период времени, мм. При наведении курсора мыши на число - период времени, за который выпало указанное количество осадков.
R24 - Количество осадков - Количество выпавших осадков за 24 часа, мм.
S - Снежный покров - Высота снежного покрова, см. При наведении курсора мыши на число - состояние снежного покрова и степень покрытия местности в баллах.